Location: Winthrop
(48.4780°N, 120.1850°W)
Time: 00:55:37
(UTC-07:00)

A-11 Canister half - Pass Details

Date: 06 June 2023
Orbit: 1515 x 1684 km, 47.2° (Epoch: 29 September)

Event Time Altitude Azimuth Distance (km) Brightness Sun altitude
Exits shadow 00:25:47 15° 135° (SE) 3,422 10.4 -18.5°
Maximum altitude 00:27:01 16° 126° (SE) 3,387 10.4 -18.5°
Drops below altitude 10° 00:32:07 10° 93° (E) 3,798 11.0 -18.6°
Sets 00:36:48 0° 74° (ENE) 4,754 11.7 -18.7°
